ONEWEB-0689, 61597

Orbit data source: Space-Track

ONEWEB-0689, 61597 is a payload satellite owned by Eut. One Web (UK) in LEO that was launched on Sun, 20 Oct 2024 UTC via an FALCON 9 launch vehicle from the Air Force Western Test Range (AFWTR). Payload-class satellites include a variety of spacecraft equipped with specific instruments for various scientific and technological missions. These include communications satellites like Starlink; space stations such as the ISS; scientific satellites like the Hubble; Earth observation satellites from companies like Planet Labs, Umbra, and HawkEye 360; GPS; miniature CubeSats for education and research; and military/defense satellites.

Loading next visibility...
Identifier
61597, 2024-188D
Orbit
LEO
Last TLE update
12 hours ago
Origin
Manufacturer
One Web
Mission
Operational Commercial Communications
Bus & Motor
ARROW, Unknown motor
Mass
148 kg wet, ~140 kg dry
Launch date (UTC)
2024-10-20 (8 months ago)
Launch vehicle
FALCON 9
Launch site
Air Force Western Test Range (AFWTR)
Object type
Payload
Rocket body
Debris
Shape & HBR
Trap Box + 2 Pan, 5 m
Radar Cross Section
2.032 m², Large (>1 m²)

Expand to show TLE details & history

TLE from 12 hours ago
0 ONEWEB-0689
1 61597U 24188D   25173.14632563  .00000491  00000-0  13484-2 0  9995
2 61597  87.8810  92.8499 0002144  68.1268 292.0088 13.11416920 35392
Epoch: 2025-06-22T03:30Z
TLE epoch observation values (Epoch: 2025-06-22T03:30:42.534Z)
Latitude
Longitude
129.59753°
Altitude
1,219.962 km
Speed
7.245 km/s
True Right ascension
06h 11m 23s
True Declination
0° 00' 00"
Sunlit
Object was in daylight at epoch
Visualization orbit readout
Latitude
4.27328°
Longitude
-50.65886°
Altitude
1,220.643 km
Speed
7.244 km/s
Apparent Right ascension
16h 44m 44s
Apparent Declination
-17° 32' 25"
Sunlit
Object is in full shadow
Visualization observer readout
Local Sidereal Time
02:27:14
Azimuth
296.96° NW
Elevation
-52.843°
Doppler factor
1
Orbital elements
Apogee altitude
1,216.429 km
Perigee altitude
1,213.173 km
Semi-major axis
7,592.938 km
Eccentricity
0.00021
Inclination
87.881°
RAAN
92.8499°
Arg. of periapsis
68.1268°
True anomaly
Unknown
Mean anomaly
292.0088°
Eccentric anomaly
Unknown
Mean motion
3.28041 °/min
Orbital period
109.74 mins
BSTAR
0.0013484
Loading maneuver chart data...
Loading SW <> Apogee altitude chart data...
Loading historical data...
Loading historical data...
Loading historical data...
Loading historical data...
Loading historical data...
Loading historical data...
Loading historical data...

ONEWEB-0689 Visibility forecast

Observer location: undefined°, undefined°

Span
Click to sort rows by Start time (UTC) header in descending order
Start Az.
Max El. time (UTC)
Max El. Az.
Max El.
End time (UTC)
End Az.
13 mins2025-06-22 18:15:27.970Z146.781° SSE2025-06-22 18:22:27.970Z73.245° E32.651°2025-06-22 18:28:27.970Z16.204° NNE
12 mins2025-06-22 20:06:27.970Z219.312° SW2025-06-22 20:11:27.970Z271.29° WNW30.386°2025-06-22 20:18:27.970Z343.698° N
11 mins2025-06-23 05:46:27.970Z27.248° NE2025-06-23 05:51:27.970Z83.544° E27.964°2025-06-23 05:57:27.970Z140.24° SSE
12 mins2025-06-23 07:35:27.970Z343.426° N2025-06-23 07:41:27.970Z272.359° WNW35.331°2025-06-23 07:47:27.970Z210.111° SW
|